Location: Lecco
(45.8566°N, 9.3977°E)
Time: 03:07:21
(UTC+02:00)

Transit 4A - Pass Details

Date: 19 August 2020
Orbit: 863 x 982 km, 66.8° (Epoch: 23 September)

Event Time Altitude Azimuth Distance (km) Brightness Sun altitude
Rises 10:36:28 0° 260° (W) 3,530 10.6 41.2°
Reaches altitude 10° 10:39:32 10° 274° (W) 2,613 9.9 41.6°
Maximum altitude 10:44:14 23° 325° (NW) 1,895 9.4 42.3°
Drops below altitude 10° 10:49:04 10° 16° (NNE) 2,685 10.3 43.1°
Sets 10:52:16 0° 31° (NNE) 3,653 11.0 43.5°
